Weather History for Emporia, KS

Change the Weather History Date:

Saturday, February 4, 2012

  Actual Average Record
Temperature  
Mean Temperature 38 °F 32 °F  
Max Temperature 42 °F 43 °F 66 °F (2008)
Min Temperature 34 °F 22 °F 1 °F (2007)
Degree Days  
Heating Degree Days 27 32  
Month to date heating degree days 80 131  
Since 1 July heating degree days 2656 3119  
Cooling Degree Days 0 0  
Month to date cooling degree days 0 0  
Year to date cooling degree days 0 0  
Moisture  
Dew Point 35 °F    
Average Humidity 89    
Maximum Humidity 96    
Minimum Humidity 82    
Precipitation  
Precipitation 0.04 in 0.04 in 0.33 in (2014)
Month to date precipitation 1.62 0.16  
Year to date precipitation 1.62 0.79  
Sea Level Pressure  
Sea Level Pressure 30.16 in    
Wind  
Wind Speed 13 mph (NNW)    
Max Wind Speed 22 mph    
Max Gust Speed 28 mph    
Visibility 7 miles    
Events Rain    
T = Trace of Precipitation, MM = Missing Value Source: NWS Daily Summary

Daily Weather History Graph

Daily Weather History Graph

Search for Another Location

Airport:

Trip Planner

Search our weather history database for the weather conditions in past years. The results will help you decide how hot, cold, wet, or windy it might be!

Date:

Astronomy

Feb. 04, 2012 Rise Set
Actual Time 7:27 AM CST 5:50 PM CST
Civil Twilight 6:59 AM CST 6:17 PM CST
Nautical Twilight 6:28 AM CST 6:49 PM CST
Astronomical Twilight 5:57 AM CST 7:20 PM CST
Moon 2:50 PM CST (2/4) 4:52 AM CST (2/4)
Length of Visible Light 11h 18m
Length of Day
10h 22m
Waxing Gibbous, 89% of the Moon is Illuminated
Feb 4
Waxing Gibbous
Feb 7
Full
Feb 14
Last Quarter
Feb 21
New
Feb 29
First Quarter

Hourly Weather History & Observations

Time (CST) Temp. Windchill Dew Point Humidity Pressure Visibility Wind Dir Wind Speed Gust Speed Precip Events Conditions
12:08 AM 42.8 °F 38.6 °F 41.0 °F 93% 29.99 in 2.5 mi North 6.9 mph - 0.02 in Rain Light Rain
12:22 AM 42.8 °F 38.0 °F 41.0 °F 93% 29.99 in 3.0 mi North 8.1 mph - 0.03 in Rain Light Rain
12:53 AM 41.0 °F 36.4 °F 41.0 °F 100% 30.01 in 5.0 mi North 6.9 mph - 0.04 in   Overcast
1:49 AM 41.0 °F 37.1 °F 39.2 °F 93% 29.98 in 6.0 mi North 5.8 mph - N/A   Overcast
1:53 AM 41.0 °F 37.1 °F 39.9 °F 96% 30.01 in 6.0 mi North 5.8 mph - N/A   Overcast
2:53 AM 42.1 °F 40.2 °F 41.0 °F 96% 30.03 in 6.0 mi NNW 3.5 mph - N/A   Overcast
4:53 AM 41.0 °F 35.8 °F 39.9 °F 96% 30.04 in 2.0 mi WNW 8.1 mph - N/A   Overcast
5:01 AM 41.0 °F 35.8 °F 39.2 °F 93% 30.02 in 2.0 mi WNW 8.1 mph - N/A   Overcast
5:39 AM 41.0 °F 35.8 °F 39.2 °F 93% 30.03 in 3.0 mi NW 8.1 mph - N/A   Overcast
5:53 AM 41.0 °F 34.3 °F 39.9 °F 96% 30.06 in 3.0 mi NW 11.5 mph - N/A   Overcast
6:53 AM 39.0 °F 31.4 °F 37.0 °F 93% 30.09 in 8.0 mi NNW 12.7 mph - N/A   Overcast
8:53 AM 37.0 °F 28.5 °F 35.1 °F 93% 30.14 in 10.0 mi NW 13.8 mph - N/A   Overcast
9:53 AM 36.0 °F 26.3 °F 34.0 °F 93% 30.17 in 10.0 mi NW 16.1 mph 21.9 mph N/A   Overcast
10:53 AM 36.0 °F 28.0 °F 34.0 °F 93% 30.20 in 10.0 mi NW 11.5 mph 21.9 mph N/A   Overcast
1:53 PM 37.0 °F 27.7 °F 33.1 °F 86% 30.20 in 10.0 mi NW 16.1 mph 25.3 mph 0.01 in   Overcast
3:53 PM 36.0 °F 26.3 °F 32.0 °F 86% 30.23 in 10.0 mi NNW 16.1 mph 24.2 mph N/A   Overcast
4:53 PM 36.0 °F 26.0 °F 30.9 °F 82% 30.25 in 10.0 mi NNW 17.3 mph - N/A   Overcast
5:27 PM 35.6 °F 25.9 °F 30.2 °F 81% 30.23 in 10.0 mi North 16.1 mph 24.2 mph N/A   Overcast
5:53 PM 35.1 °F 25.5 °F 30.9 °F 85% 30.27 in 10.0 mi NNW 15.0 mph - N/A   Overcast
6:28 PM 35.6 °F 25.9 °F 30.2 °F 81% 30.25 in 10.0 mi NNW 16.1 mph - N/A   Overcast
6:53 PM 35.1 °F 25.2 °F 30.0 °F 82% 30.30 in 10.0 mi NNW 16.1 mph 23.0 mph N/A   Overcast
7:53 PM 34.0 °F 23.4 °F 30.0 °F 85% 30.31 in 10.0 mi NNW 17.3 mph - N/A   Overcast
8:35 PM 33.8 °F 24.3 °F 30.2 °F 87% 30.29 in 9.0 mi NW 13.8 mph 21.9 mph N/A   Overcast
8:51 PM 33.8 °F 23.9 °F 30.2 °F 87% 30.29 in 10.0 mi NNW 15.0 mph - N/A   Overcast
8:53 PM 34.0 °F 23.4 °F 30.0 °F 85% 30.32 in 10.0 mi NW 17.3 mph - N/A   Overcast
9:53 PM 34.0 °F 25.0 °F 30.0 °F 85% 30.34 in 9.0 mi NNW 12.7 mph - N/A   Overcast